Location: Unspecified
(40.9447°N, 78.9903°W)
Time: 09:19:06
(UTC-04:00)

Resurs 1-4 Rocket - Pass Details

Date: 30 July 2021
Orbit: 799 x 814 km, 98.6° (Epoch: 27 September)

Event Time Altitude Azimuth Distance (km) Brightness Sun altitude
Rises 04:12:15 0° 358° (N) 3,340 6.0 -18.8°
Reaches altitude 10° 04:15:15 10° 340° (NNW) 2,401 4.9 -18.4°
Maximum altitude 04:18:48 19° 298° (WNW) 1,864 3.8 -17.9°
Enters shadow 04:20:32 16° 274° (W) 2,001 3.8 -17.7°
